Atlanta Fulton, GA

1:34 PM EST on November 15, 2019 (GMT -0500)
Fulton County-Brown

Weather History for KFTY - September, 2019

Change the Weather History Date:

Thursday, September 26, 2019

  Actual Average Record
Temperature  
Mean Temperature 81 °F 70 °F  
Max Temperature 94 °F 80 °F 88 °F (2016)
Min Temperature 67 °F 59 °F 42 °F (2001)
Degree Days  
Heating Degree Days 0 1  
Month to date heating degree days 0 5  
Since 1 July heating degree days 0 5  
Cooling Degree Days 16 5  
Month to date cooling degree days 376 225  
Year to date cooling degree days 2092 1662  
Growing Degree Days 28 (Base 50)    
Moisture  
Dew Point 68 °F    
Average Humidity 67    
Maximum Humidity 93    
Minimum Humidity 41    
Precipitation  
Precipitation 0.05 in 0.15 in 2.05 in (1956)
Month to date precipitation 1.66 3.37  
Year to date precipitation 31.95 38.79  
Sea Level Pressure  
Sea Level Pressure 29.90 in    
Wind  
Wind Speed 2 mph (NW)    
Max Wind Speed 18 mph    
Max Gust Speed 36 mph    
Visibility 10 miles    
Events      
T = Trace of Precipitation, MM = Missing Value Source: NWS Daily Summary

Daily Weather History Graph

Daily Weather History Graph

Search for Another Location

Airport or City:

Astronomy

Sep. 26, 2019 Rise Set
Actual Time 7:28 AM EDT 7:29 PM EDT
Civil Twilight 7:03 AM EDT 7:54 PM EDT
Nautical Twilight 6:34 AM EDT 8:23 PM EDT
Astronomical Twilight 6:05 AM EDT 8:52 PM EDT
Moon 4:46 AM EDT (9/26) 6:32 PM EDT (9/26)
Length of Visible Light 12h 50m
Length of Day
12h 00m
Waning Crescent, 7% of the Moon is Illuminated
Sep 26
Waning Crescent
Sep 28
New
Oct 5
First Quarter
Oct 13
Full
Oct 21
Last Quarter

Hourly Weather History & Observations

Time (EDT) Temp. Heat Index Dew Point Humidity Pressure Visibility Wind Dir Wind Speed Gust Speed Precip Events Conditions
12:53 AM 70.0 °F - 64.9 °F 84% 29.89 in 10.0 mi Calm Calm - N/A   Clear
1:53 AM 69.1 °F - 64.0 °F 84% 29.88 in 10.0 mi Calm Calm - N/A   Clear
2:53 AM 68.0 °F - 64.0 °F 87% 29.87 in 10.0 mi Calm Calm - N/A   Clear
3:53 AM 66.9 °F - 64.0 °F 90% 29.86 in 10.0 mi Calm Calm - N/A   Clear
4:53 AM 68.0 °F - 64.0 °F 87% 29.87 in 10.0 mi Calm Calm - N/A   Mostly Cloudy
5:53 AM 68.0 °F - 64.0 °F 87% 29.89 in 10.0 mi Calm Calm - N/A   Mostly Cloudy
6:53 AM 71.1 °F - 64.9 °F 81% 29.91 in 10.0 mi Calm Calm - N/A   Mostly Cloudy
7:53 AM 71.1 °F - 66.0 °F 84% 29.92 in 10.0 mi Calm Calm - N/A   Scattered Clouds
8:53 AM 75.0 °F - 66.0 °F 73% 29.94 in 10.0 mi Calm Calm - N/A   Clear
9:53 AM 81.0 °F 83.3 °F 66.9 °F 62% 29.94 in 10.0 mi Calm Calm - N/A   Clear
10:53 AM 88.0 °F 90.7 °F 66.9 °F 49% 29.94 in 10.0 mi NW 6.9 mph - N/A   Clear
11:53 AM 88.0 °F 90.7 °F 66.9 °F 49% 29.94 in 10.0 mi North 8.1 mph - N/A   Clear
12:53 PM 90.0 °F 92.8 °F 66.9 °F 46% 29.92 in 10.0 mi WNW 6.9 mph - N/A   Clear
1:53 PM 91.9 °F 94.5 °F 66.0 °F 42% 29.91 in 10.0 mi NW 8.1 mph - N/A   Scattered Clouds
2:53 PM 91.0 °F 93.0 °F 64.9 °F 42% 29.88 in 10.0 mi North - - N/A   Mostly Cloudy
3:53 PM 91.9 °F 93.3 °F 64.0 °F 39% 29.87 in 10.0 mi WSW 5.8 mph - N/A   Clear
4:53 PM 80.1 °F 83.6 °F 71.1 °F 74% 29.88 in 10.0 mi WNW 9.2 mph - 0.05 in   Mostly Cloudy
5:53 PM 86.0 °F 95.1 °F 75.0 °F 70% 29.86 in 10.0 mi NNE 3.5 mph - N/A   Partly Cloudy
6:53 PM 86.0 °F 90.7 °F 70.0 °F 59% 29.86 in 10.0 mi Calm Calm - N/A   Clear
7:53 PM 79.0 °F - 75.0 °F 88% 29.88 in 6.0 mi Calm Calm - N/A   Clear
8:53 PM 78.1 °F - 73.0 °F 84% 29.89 in 10.0 mi Calm Calm - N/A   Clear
9:53 PM 75.0 °F - 72.0 °F 90% 29.91 in 10.0 mi Calm Calm - N/A   Clear
10:53 PM 73.9 °F - 70.0 °F 87% 29.92 in 10.0 mi Calm Calm - N/A   Clear
11:53 PM 72.0 °F - 70.0 °F 93% 29.92 in 8.0 mi Calm Calm - N/A   Clear